Regional Weather Roundup
Issued by NWS State College, PA

Home | Current Version | Previous Version | Text Only | Print | Product List | Glossary On
Versions: 1 2 3 4 5 6 7 8 9 10 11 12 13 14 15 16 17 18 19 20 21 22 23 24 25 26 27 28 29 30 31 32 33 34 35 36 37 38 39 40 41 42 43 44 45 46 47 48 49 50
614
ASUS41 KCTP 040710
RWRCTP

REGIONAL WEATHER ROUNDUP
NATIONAL WEATHER SERVICE STATE COLLEGE PA
300 AM EDT WED MAY 04 2016

Note: "fair" indicates few or no clouds below 12,000 feet with no
significant weather and/or obstructions to visibility.

* = STATION THAT DOES NOT REPORT PRECIPITATION /E.G. RAIN...SNOW...ETC/
    THUNDER OR FOG.

PAZ002>004-007>009-013>016-020>023-029>032-040800-
WESTERN PENNSYLVANIA

CITY           SKY/WX    TMP DP  RH WIND       PRES   REMARKS
ERIE           CLEAR     42  38  85 CALM      29.76F
MEADVILLE      CLEAR     37  36  96 CALM      29.75F
FRANKLIN*      CLEAR     39  36  87 CALM      29.78F
NEW CASTLE     FAIR      43  38  82 CALM      29.77F
BEAVER COUNTY  NOT AVBL
BUTLER*        CLOUDY    48  37  66 CALM      29.78F
PITTSBURGH INT CLOUDY    52  41  66 CALM      29.75F
PITTSBURGH     LGT RAIN  52  40  63 W3        29.75F
INDIANA*       CLOUDY    45  43  93 CALM      29.78F
LATROBE        CLOUDY    46  46 100 S3        29.76F
WASHINGTON CO* CLOUDY    50  45  81 CALM      29.76F
$$

PAZ004>006-010>012-017>019-024>028-033>037-041-042-045-046-049>053-040800-
CENTRAL PENNSYLVANIA

CITY           SKY/WX    TMP DP  RH WIND       PRES   REMARKS
BRADFORD       FOG       36  34  92 CALM      29.75F VSB 1/4
DUBOIS         MOCLDY    43  40  89 CALM      29.74F
CLEARFIELD     PTCLDY    43  39  86 NW5       29.75F
JOHNSTOWN      CLEAR     47  39  74 S5        29.75F
ALTOONA        CLOUDY    50  42  74 CALM      29.75F
STATE COLLEGE  CLOUDY    50  48  92 N5        29.75F
WILLIAMSPORT   CLOUDY    53  47  79 N3        29.75F
SELINSGROVE    LGT RAIN  53  52  96 CALM      29.76F FOG
FT INDIANTOWN  CLOUDY    54  54 100 VRB1      29.76F FOG
CAPITAL CITY   LGT RAIN  56  52  86 SE5       29.76S FOG
HARRISBURG     LGT RAIN  55  52  89 SE7       29.75F FOG
YORK           LGT RAIN  53  52  96 E7        29.75F FOG
$$

PAZ038>040-043-044-047-048-054-055-060>062-067>071-040800-
EASTERN PENNSYLVANIA

CITY           SKY/WX    TMP DP  RH WIND       PRES   REMARKS
SCRANTON       CLOUDY    50  49  96 CALM      29.76F FOG
MOUNT POCONO   LGT RAIN  47  46  97 S5        29.76F VSB 1/4
ALLENTOWN      CLOUDY    52  48  86 SE6       29.78F
QUAKERTOWN*    CLOUDY    50  50 100 SE5       29.79F
READING        LGT RAIN  53  49  86 SE5       29.76F
LANCASTER      LGT RAIN  53  52  96 SE5       29.77F FOG
COATESVILLE    LGT RAIN  50  50 100 MISG      29.79F
POTTSTOWN      CLOUDY    50  48  93 E6        29.79F
BLUE BELL      CLOUDY    48  46  93 E3        29.77F
DOYLESTOWN     LGT RAIN  48  48 100 CALM      29.78F
WILLOW GROVE   NOT AVBL
NORTH PHILA    CLOUDY    52  48  86 E5        29.80F
PHILADELPHIA   CLOUDY    52  47  83 E8        29.79F
$$




USA.gov is the U.S. government's official web portal to all federal, state and local government web resources and services.